FW0088 Weather Reports


Display with metric or nautical units.
time (UTC)temp
F
wind
direction
speed
MPH
gust
MPH
rain 1hr
in
rain 24hr
in
rain mn
in
humidity
%
barometer
mb
20200921094008 68 5 1.0 6.0 0.00 0.00 0.00 91 1017.8
20200921093017 68 359 2.0 5.0 0.00 0.00 0.00 91 1017.6
20200921092009 68 354 3.0 9.0 0.00 0.00 0.00 91 1017.2
20200921091009 68 339 4.0 13.0 0.00 0.00 0.00 90 1017.1
20200921090022 68 345 2.0 7.0 0.00 0.00 0.00 90 1017.1
20200921085013 69 353 3.0 13.0 0.00 0.00 0.00 90 1016.8
20200921084011 69 355 3.0 10.0 0.00 0.00 0.00 89 1016.9
20200921083012 69 343 2.0 10.0 0.00 0.00 0.00 88 1016.7
20200921082008 69 317 2.0 6.0 0.00 0.00 0.00 88 1016.6
20200921081018 69 355 2.0 7.0 0.00 0.00 0.00 88 1016.4
20200921080018 69 355 2.0 8.0 0.00 0.00 0.00 88 1016.4
20200921075008 70 347 2.0 8.0 0.00 0.00 0.00 88 1016.3
20200921074006 70 128 2.0 7.0 0.00 0.00 0.00 89 1016.2
20200921073019 70 108 1.0 9.0 0.00 0.00 0.00 88 1016.2
20200921072023 71 104 1.0 4.0 0.00 0.00 0.00 87 1016.4
20200921071010 71 129 2.0 7.0 0.00 0.00 0.00 86 1016.4
20200921070018 72 25 1.0 6.0 0.00 0.00 0.00 86 1016.5
20200921065010 72 145 2.0 6.0 0.00 0.00 0.00 85 1016.5
20200921064019 72 135 2.0 5.0 0.00 0.00 0.00 85 1016.5
20200921063019 73 121 2.0 7.0 0.00 0.00 0.00 83 1016.5
20200921062006 74 132 2.0 7.0 0.00 0.00 0.00 82 1016.6
20200921061010 74 132 2.0 7.0 0.00 0.00 0.00 82 1016.8
20200921060023 74 142 3.0 10.0 0.00 0.00 0.00 80 1016.7
20200921055016 76 116 3.0 9.0 0.00 0.00 0.00 77 1016.7
20200921054011 77 129 2.0 8.0 0.00 0.00 0.00 76 1016.9
20200921053022 78 346 2.0 9.0 0.00 0.00 0.00 74 1016.9
20200921052019 78 140 3.0 10.0 0.00 0.00 0.00 74 1016.8
20200921051008 78 151 3.0 10.0 0.00 0.00 0.00 73 1016.7
20200921050021 79 148 3.0 7.0 0.00 0.00 0.00 73 1016.8
20200921045009 79 143 3.0 8.0 0.00 0.00 0.00 72 1017.0
20200921044012 80 121 3.0 10.0 0.00 0.00 0.00 71 1017.0
20200921043011 80 155 3.0 11.0 0.00 0.00 0.00 69 1017.2
20200921042006 81 66 2.0 7.0 0.00 0.00 0.00 66 1017.3
20200921041007 82 23 2.0 6.0 0.00 0.00 0.00 65 1017.4
20200921040018 82 139 2.0 8.0 0.00 0.00 0.00 63 1017.4
20200921035007 81 12 2.0 7.0 0.00 0.00 0.00 60 1017.5
20200921034009 82 50 3.0 11.0 0.00 0.00 0.00 57 1017.6
20200921033021 82 4 2.0 8.0 0.00 0.00 0.00 56 1017.7
20200921032014 81 340 3.0 8.0 0.00 0.00 0.00 57 1017.7
20200921031014 81 4 3.0 12.0 0.00 0.00 0.00 58 1018.0
20200921030019 81 332 3.0 7.0 0.00 0.00 0.00 57 1018.0
20200921025008 81 331 2.0 7.0 0.00 0.00 0.00 57 1018.1
20200921024019 80 337 3.0 9.0 0.00 0.00 0.00 59 1018.4
20200921023018 80 359 2.0 7.0 0.00 0.00 0.00 59 1018.4
20200921022008 80 351 2.0 8.0 0.00 0.00 0.00 60 1018.5
20200921021005 79 345 3.0 10.0 0.00 0.00 0.00 62 1018.6
20200921020015 78 351 4.0 11.0 0.00 0.00 0.00 63 1018.8
20200921015012 79 22 2.0 8.0 0.00 0.00 0.00 62 1018.9
20200921014021 78 2 2.0 11.0 0.00 0.00 0.00 63 1019.2
20200921013027 77 33 3.0 10.0 0.00 0.00 0.00 67 1019.2
20200921012010 77 32 3.0 10.0 0.00 0.00 0.00 66 1019.4
20200921011017 77 338 2.0 8.0 0.00 0.00 0.00 69 1019.4
20200921010021 77 353 3.0 11.0 0.00 0.00 0.00 67 1019.5
20200921005009 76 359 3.0 8.0 0.00 0.00 0.00 67 1019.7
20200921004009 77 24 2.0 8.0 0.00 0.00 0.00 67 1019.7
20200921003014 77 351 2.0 11.0 0.00 0.00 0.00 68 1019.7
20200921002006 76 19 3.0 10.0 0.00 0.00 0.00 71 1019.8
20200921001005 76 12 3.0 8.0 0.00 0.00 0.00 68 1020.1
20200921000014 76 37 2.0 5.0 0.00 0.00 0.00 70 1020.2
20200920235010 75 345 2.0 7.0 0.00 0.00 0.00 74 1020.1
20200920234018 74 357 2.0 7.0 0.00 0.00 0.00 75 1020.1
20200920233014 73 338 3.0 9.0 0.00 0.00 0.00 76 1020.1
20200920232007 73 338 2.0 7.0 0.00 0.00 0.00 77 1020.4
20200920231008 72 305 2.0 8.0 0.00 0.00 0.00 80 1020.3
20200920230026 70 334 2.0 7.0 0.00 0.00 0.00 82 1020.3
20200920225008 69 325 1.0 5.0 0.00 0.00 0.00 83 1020.3
20200920224009 69 274 2.0 7.0 0.00 0.00 0.00 84 1020.2
20200920223013 69 7 2.0 8.0 0.00 0.00 0.00 83 1020.2
20200920222010 70 341 3.0 8.0 0.00 0.00 0.00 82 1020.3
20200920221005 69 358 3.0 7.0 0.00 0.00 0.00 84 1020.1
20200920220018 69 26 2.0 6.0 0.00 0.00 0.00 83 1020.1
20200920215008 69 3 2.0 5.0 0.00 0.00 0.00 85 1020.0
20200920214024 69 300 1.0 3.0 0.00 0.00 0.00 86 1020.0
20200920213022 67 322 2.0 5.0 0.00 0.00 0.00 88 1019.9
20200920212012 67 351 2.0 10.0 0.00 0.00 0.00 88 1019.7
20200920211017 67 297 1.0 4.0 0.00 0.00 0.00 89 1019.6
20200920210021 66 287 1.0 5.0 0.00 0.00 0.00 91 1019.4
20200920205008 64 312 1.0 10.0 0.00 0.00 0.00 93 1019.3
20200920204009 64 294 1.0 6.0 0.00 0.00 0.00 94 1019.2
20200920203019 63 303 1.0 2.0 0.00 0.00 0.00 95 1019.2
20200920202010 63 297 1.0 7.0 0.00 0.00 0.00 95 1019.0
20200920201007 62 297 1.0 5.0 0.00 0.00 0.00 96 1018.9
20200920200011 62 303 1.0 4.0 0.00 0.00 0.00 96 1018.6
20200920195025 62 336 1.0 6.0 0.00 0.00 0.00 96 1018.5
20200920194006 62 340 0.0 4.0 0.00 0.00 0.00 95 1018.4
20200920193021 62 316 1.0 4.0 0.00 0.00 0.00 95 1018.2
20200920192007 62 15 1.0 2.0 0.00 0.00 0.00 95 1018.1
20200920191009 63 17 1.0 7.0 0.00 0.00 0.00 94 1018.0
20200920190019 63 56 1.0 2.0 0.00 0.00 0.00 94 1018.0
20200920185018 63 342 2.0 9.0 0.00 0.00 0.00 94 1018.0
20200920184010 64 274 1.0 6.0 0.00 0.00 0.00 94 1017.9
20200920183016 64 355 1.0 5.0 0.00 0.00 0.00 94 1017.9
20200920182008 64 5 1.0 4.0 0.00 0.00 0.00 94 1018.0
20200920181010 64 27 1.0 5.0 0.00 0.00 0.00 94 1017.8
20200920180022 64 314 2.0 7.0 0.00 0.00 0.00 94 1017.8
20200920175008 64 282 1.0 4.0 0.00 0.00 0.00 94 1017.7
20200920174014 64 337 0.0 4.0 0.00 0.00 0.00 94 1017.6
20200920173026 64 14 1.0 4.0 0.00 0.00 0.00 94 1017.6
20200920172019 64 335 2.0 10.0 0.00 0.00 0.00 94 1017.6
20200920171028 64 277 1.0 6.0 0.00 0.00 0.00 94 1017.6
20200920170024 64 341 1.0 3.0 0.00 0.00 0.00 95 1017.8
20200920165009 64 314 1.0 7.0 0.00 0.00 0.00 95 1017.7
20200920164011 64 4 1.0 5.0 0.00 0.00 0.00 95 1017.9
20200920163019 64 314 1.0 3.0 0.00 0.00 0.00 95 1017.9
20200920162007 64 320 1.0 6.0 0.00 0.00 0.00 95 1018.1
20200920161007 64 323 1.0 4.0 0.00 0.00 0.00 95 1018.0
20200920160027 64 32 2.0 7.0 0.00 0.00 0.00 95 1018.0
20200920155006 64 17 2.0 4.0 0.00 0.00 0.00 95 1018.2
20200920154006 64 301 2.0 7.0 0.00 0.00 0.00 95 1018.4
20200920153022 64 319 2.0 9.0 0.00 0.00 0.00 95 1018.4
20200920152011 64 326 2.0 7.0 0.00 0.00 0.00 95 1018.4
20200920151022 64 256 1.0 7.0 0.00 0.00 0.00 95 1018.4
20200920150022 64 310 1.0 5.0 0.00 0.00 0.00 95 1018.5
20200920145009 64 6 2.0 8.0 0.00 0.00 0.00 95 1018.6
20200920144018 64 277 2.0 6.0 0.00 0.00 0.00 95 1018.7
20200920143024 64 315 2.0 5.0 0.00 0.00 0.00 95 1018.7
20200920142018 64 307 2.0 8.0 0.00 0.00 0.00 96 1018.8
20200920141008 64 319 1.0 5.0 0.00 0.00 0.00 96 1019.0
20200920140021 64 331 1.0 5.0 0.00 0.00 0.00 96 1019.0
20200920135017 64 334 2.0 7.0 0.00 0.00 0.00 96 1018.8
20200920134012 64 67 1.0 4.0 0.00 0.00 0.00 96 1019.0
20200920133019 64 327 2.0 6.0 0.00 0.00 0.00 96 1019.1
20200920132011 64 345 1.0 4.0 0.00 0.00 0.00 96 1019.1
20200920131009 64 328 1.0 6.0 0.00 0.00 0.00 96 1019.0
20200920130016 64 64 1.0 6.0 0.00 0.00 0.00 96 1019.0
20200920125008 64 333 1.0 5.0 0.00 0.00 0.00 96 1019.0
20200920124008 64 349 2.0 9.0 0.00 0.00 0.00 96 1019.2
20200920123010 64 29 1.0 5.0 0.00 0.00 0.00 96 1019.3
20200920122018 64 50 2.0 8.0 0.00 0.00 0.00 96 1019.3
20200920121020 63 2 1.0 5.0 0.00 0.00 0.00 96 1019.4
20200920120009 63 341 1.0 10.0 0.00 0.00 0.00 96 1019.3
20200920115009 63 351 1.0 7.0 0.00 0.00 0.00 97 1019.2
20200920114019 63 341 1.0 4.0 0.00 0.00 0.00 96 1019.3
20200920113016 63 308 1.0 4.0 0.00 0.00 0.00 96 1019.4
20200920112006 63 325 1.0 2.0 0.00 0.00 0.00 95 1019.4
20200920111024 63 328 1.0 5.0 0.00 0.00 0.00 95 1019.5
20200920110025 63 7 1.0 3.0 0.00 0.00 0.00 95 1019.6
20200920105006 63 7 1.0 3.0 0.00 0.00 0.00 95 1019.5
20200920104010 64 6 1.0 2.0 0.00 0.00 0.00 95 1019.5
20200920103022 64 7 1.0 3.0 0.00 0.00 0.00 95 1019.4
20200920102006 64 25 1.0 4.0 0.00 0.00 0.00 95 1019.3
20200920101015 64 349 1.0 3.0 0.00 0.00 0.00 95 1019.3
20200920100023 64 314 1.0 4.0 0.00 0.00 0.00 95 1019.2
20200920095006 64 23 1.0 5.0 0.00 0.00 0.00 96 1018.9